Location: Ostrava
(49.8330°N, 18.2830°E)
Time: 17:01:16
(UTC+01:00)

Iridium 7 - Visible Passes

Search period start: 24 March 2017 00:00
Search period end: 03 April 2017 01:00
Orbit: 776 x 779 km, 86.4° (Epoch: 22 March)

Date Brightness Start Highest point End Pass type
(mag) Time Alt. Az. Time Alt. Az. Time Alt. Az.
24 Mar 7.9 21:00:04 10° NE 21:00:16 10° NE 21:00:16 10° NE visible
24 Mar 7.3 22:38:23 10° N 22:40:45 27° N 22:40:45 27° N visible
25 Mar 8.1 00:20:18 10° NW 00:21:13 13° NW 00:21:13 13° NW visible
25 Mar 7.3 22:05:01 10° N 22:07:27 25° NNE 22:07:27 25° NNE visible
25 Mar 7.8 23:46:03 10° NNW 23:47:55 19° NW 23:47:55 19° NW visible
26 Mar 7.4 22:31:50 10° NNE 22:34:09 20° NE 22:34:09 20° NE visible
27 Mar 7.4 00:12:10 10° NNW 00:14:38 27° NNW 00:14:38 27° NNW visible
27 Mar 7.6 21:59:07 10° NNE 22:00:52 15° NE 22:00:52 15° NE visible
27 Mar 7.0 23:38:29 10° N 23:41:21 33° N 23:41:21 33° N visible
28 Mar 8.2 01:21:15 10° NW 01:21:49 11° NW 01:21:49 11° NW visible
28 Mar 6.8 23:05:00 10° N 23:08:04 34° NNE 23:08:04 34° NNE visible
29 Mar 7.8 00:46:32 10° NNW 00:48:33 18° NW 00:48:33 18° NW visible
29 Mar 6.9 22:31:41 10° N 22:34:48 28° NE 22:34:48 28° NE visible
30 Mar 7.3 00:12:27 10° NNW 00:15:16 27° NW 00:15:16 27° NW visible
30 Mar 7.2 21:58:40 10° NNE 22:01:31 20° NE 22:01:31 20° NE visible
30 Mar 6.8 23:38:39 10° N 23:42:00 39° NNW 23:42:00 39° NNW visible
31 Mar 7.6 21:26:16 10° NE 21:28:15 13° ENE 21:28:15 13° ENE visible
31 Mar 6.3 23:05:03 10° N 23:08:44 46° N 23:08:44 46° N visible
01 Apr 7.9 00:47:12 10° NW 00:49:13 15° WNW 00:49:13 15° WNW visible
01 Apr 6.4 22:31:37 10° N 22:35:29 40° NE 22:35:29 40° NE visible
02 Apr 7.4 00:12:50 10° NNW 00:15:58 24° WNW 00:15:58 24° WNW visible
02 Apr 6.7 21:58:25 10° NNE 22:02:14 28° ENE 22:02:14 28° ENE visible
02 Apr 6.7 23:38:53 10° NNW 23:42:44 39° NW 23:42:44 39° NW visible
